Location: Unspecified
(0.0000°N, 0.0000°E)
Time: 17:52:26
(UTC+02:00)

ISS - All Passes

Search period start: 30 September 2014 00:00
Search period end: 10 October 2014 00:00
Orbit: 413 x 416 km, 51.6° (Epoch: 30 September)

Date Brightness Start Highest point End Pass type
(mag) Time Alt. Az. Time Alt. Az. Time Alt. Az.
30 Sep - 09:31:42 10° NW 09:34:53 46° SW 09:38:05 10° SSE daylight
30 Sep - 21:07:07 10° SW 21:10:26 78° NW 21:13:45 10° NNE visible
01 Oct - 08:42:36 10° NNW 08:45:52 62° NE 08:49:09 10° SE daylight
01 Oct - 20:18:17 10° SSW 20:21:24 38° SE 20:24:30 10° NE visible
02 Oct - 07:54:05 10° N 07:56:49 24° NE 07:59:34 10° ESE daylight
02 Oct - 09:32:53 10° WSW 09:33:19 10° SW 09:33:45 10° SW daylight
02 Oct - 19:30:10 10° SSE 19:32:19 16° SE 19:34:29 10° E daylight
02 Oct - 21:06:45 10° W 21:08:49 15° NW 21:10:52 10° NNW visible
03 Oct - 07:06:59 10° NE 07:07:43 11° NE 07:08:28 10° ENE visible
03 Oct - 08:41:31 10° WNW 08:44:13 23° SW 08:46:55 10° S daylight
03 Oct - 20:16:38 10° WSW 20:19:43 36° NW 20:22:47 10° NNE visible
04 Oct - 07:51:51 10° NW 07:55:06 59° SW 07:58:23 10° SSE daylight
04 Oct - 19:27:17 10° SSW 19:30:37 82° SE 19:33:55 10° NE daylight
05 Oct - 07:02:48 10° NNW 07:06:00 48° NE 07:09:12 10° SE visible
05 Oct - 18:38:30 10° S 18:41:29 30° SE 18:44:26 10° ENE daylight
06 Oct - 06:14:22 10° N 06:16:51 20° NE 06:19:20 10° ESE visible
06 Oct - 07:51:49 10° W 07:53:20 13° SW 07:54:51 10° SSW daylight
06 Oct - 17:50:37 10° SSE 17:52:18 13° SE 17:53:58 10° E daylight
06 Oct - 19:26:22 10° WSW 19:28:47 19° NW 19:31:12 10° N daylight
07 Oct - 07:01:14 10° WNW 07:04:09 28° SW 07:07:04 10° S visible
07 Oct - 18:36:24 10° SW 18:39:36 46° NW 18:42:47 10° NNE daylight
08 Oct - 06:11:39 10° NW 06:14:57 78° SW 06:18:16 10° SSE visible
08 Oct - 17:47:07 10° SSW 17:50:24 63° SE 17:53:41 10° NE daylight
09 Oct - 05:22:39 10° NNW 05:25:45 37° NE 05:28:50 10° SE visible
09 Oct - 16:58:25 10° S 17:01:10 24° SE 17:03:55 10° ENE daylight
09 Oct - 18:37:13 10° WNW 18:37:39 10° NW 18:38:05 10° NW daylight
